User: anonymous   Login
Location: Goheenville
(40.9070°N, 79.3720°W)
Time: 08:54:42
(UTC-05:00)
Language:

NOAA 11 - Orbit

View from above orbital plane
View from above orbital plane
View from above satellite
View from above satellite

Ground track
Ground track

The orbit data is extracted from the following two-line orbital elements,

1 19531U 88089A   15058.19046724  .00000029  00000-0  36789-4 0  9992
2 19531 098.6552 134.9382 0010130 290.6014 069.4073 14.15134126363800
Epoch (UTC): 27 February 2015 04:34:16
Eccentricity: 0.0010130
inclination: 98.6552°
perigee height: 834 km
apogee height: 849 km
right ascension of ascending node: 134.9382°
argument of perigee: 290.6014°
revolutions per day: 14.15134126
mean anomaly at epoch: 69.4073°
orbit number at epoch: 36380

The dashed part of the orbit path shows where the satellite is in the earth's shadow,  

DLR